Location: El Hornillo
(40.2499°N, 5.1036°W)
Time: 09:21:25
(UTC+00:00)

Meteor 1-27 - Pass Details

Date: 05 August 2024
Orbit: 836 x 892 km, 81.3° (Epoch: 14 September)

Event Time Altitude Azimuth Distance (km) Brightness Sun altitude
Rises 19:57:32 0° 348° (NNW) 3,397 8.0 -5.6°
Reaches altitude 10° 19:59:57 10° 347° (NNW) 2,457 7.3 -6.0°
Maximum altitude 20:05:29 75° 263° (W) 869 4.5 -7.0°
Drops below altitude 10° 20:11:00 10° 179° (S) 2,447 6.3 -7.9°
Sets 20:13:25 0° 178° (S) 3,382 7.0 -8.3°
